This is the latest recevied weather packets stored in our database for station/object WE8L. If no packets are shown the sender has not sent any weather packets the latest 10 day(s).
| Time | Temp. | Humidity | Pressure | Rain* | Wind** | Luminosity | Snow |
|---|---|---|---|---|---|---|---|
| 1777388444 | 17.78° C | 92% | 1016.5 hPa | 0 mm | - | 61 W/m² | - |
| 1777388144 | 17.78° C | 93% | 1016.5 hPa | 0 mm | - | 55 W/m² | - |
| 1777387839 | 17.78° C | 93% | 1016.6 hPa | 0 mm | - | 67 W/m² | - |
| 1777387537 | 17.78° C | 93% | 1016.4 hPa | 0 mm | - | 98 W/m² | - |
| 1777387233 | 17.78° C | 94% | 1016.4 hPa | 0 mm | - | 44 W/m² | - |
| 1777386927 | 17.22° C | 94% | 1016.3 hPa | 0 mm | - | 41 W/m² | - |
| 1777386625 | 17.22° C | 94% | 1016.2 hPa | 0 mm | - | 52 W/m² | - |
| 1777386322 | 17.22° C | 94% | 1016.3 hPa | 0 mm | - | 62 W/m² | - |
| 1777386020 | 17.22° C | 95% | 1016 hPa | 0 mm | - | 40 W/m² | - |
| 1777385716 | 17.22° C | 96% | 1016.1 hPa | 0 mm | - | 55 W/m² | - |
| 1777385413 | 16.67° C | 96% | 1016 hPa | 0 mm | - | 75 W/m² | - |
| 1777385110 | 16.67° C | 97% | 1015.7 hPa | 0 mm | - | 85 W/m² | - |
| 1777384805 | 16.67° C | 97% | 1015.9 hPa | 0 mm | - | 62 W/m² | - |
| 1777384502 | 16.67° C | 98% | 1015.7 hPa | 0 mm | - | 39 W/m² | - |
| 1777384196 | 16.67° C | 98% | 1015.5 hPa | 0 mm | - | 62 W/m² | - |
| 1777383894 | 16.67° C | 98% | 1015.5 hPa | 0 mm | - | 82 W/m² | - |
| 1777383589 | 16.11° C | 99% | 1015.4 hPa | 0 mm | - | 109 W/m² | - |
| 1777383286 | 16.11° C | 99% | 1015.3 hPa | 0 mm | - | 56 W/m² | - |
| 1777382982 | 16.11° C | 99% | 1015.3 hPa | 0 mm | - | 35 W/m² | - |
| 1777382678 | 16.11° C | 99% | 1015.4 hPa | 0 mm | - | 34 W/m² | - |
| 1777382374 | 16.11° C | 99% | 1015.3 hPa | 0 mm | - | 28 W/m² | - |
| 1777382070 | 16.11° C | 99% | 1015.2 hPa | 0 mm | - | 45 W/m² | - |
| 1777381767 | 16.11° C | 99% | 1015.1 hPa | 0 mm | - | 41 W/m² | - |
| 1777381461 | 16.11° C | 99% | 1015 hPa | 0 mm | - | 27 W/m² | - |
| 1777381158 | 16.11° C | 99% | 1014.8 hPa | 0 mm | - | 40 W/m² | - |
* Rain latest hour (hover to see other rain measurements)
** Current wind speed in m/s (hover to see current wind gust speed)